Lid_Strength_Index
-1 -1 1 2 6 7 11 11 8 9 8 6 5 7 8 7 9 11 1 0 -0 -0 -1 -1 -1 -2 -1 -1 -1 -2 -2 -1 -2 -2 -1 -1 -1 -1 -1 -1 -1 -1 -1 -1 -1 -1 -1 -1 -1
1 1 2 3 8 11 11 9 10 8 6 5 5 6 7 8 4 4 2 0 -0 -1 -1 -1 -1 -1 -1 -1 -1 -1 -2 -2 -2 -1 -1 -1 -1 -1 -1 -1 -1 -1 -1 -1 -1 -1 -1 -1 -1
1 3 3 6 7 10 11 9 8 7 5 6 7 5 6 7 4 3 0 -0 -1 -0 -1 -1 -1 -2 -1 -1 -1 -1 -1 -2 -1 -1 -1 -1 -1 -1 -1 -1 -1 -1 -1 -1 -1 -1 -1 -1 -1
2 4 5 8 10 9 9 7 7 7 6 5 5 8 4 2 3 1 -0 -0 -0 -1 -1 -1 -1 -2 -2 -1 -2 -2 -1 -1 -1 -1 -1 -1 -1 -1 -1 -1 -1 -1 -1 -1 -1 -1 -1 -1 -1
4 5 8 10 11 8 7 6 6 7 7 6 5 7 6 3 1 0 0 -0 0 -0 -1 -1 -1 -1 -1 -1 -1 -2 -2 -2 -1 -1 -1 -1 -1 -1 -1 -1 -1 -1 -1 -1 -1 -1 -1 -1 -1
5 5 9 10 10 7 7 6 6 6 6 6 6 7 6 2 2 1 -0 -0 -1 -0 -1 -1 -1 -1 -1 -1 -1 -1 -1 -1 -1 -1 -1 -1 -1 -1 -1 -1 -1 -1 -1 -1 -1 -1 -1 -1 -1
6 7 10 11 9 9 7 5 6 6 6 6 4 7 5 3 1 0 0 -0 -1 -1 -1 -1 -1 -1 -1 -1 -1 -2 -1 -1 -1 -1 -2 -1 -1 -1 -1 -1 -1 -1 -2 -2 -2 -2 -2 -2 -2
5 6 10 11 9 9 6 6 5 5 6 3 3 7 7 3 1 0 0 -0 -0 -0 -1 -1 -1 -1 -1 -1 -1 -1 -1 -1 -1 -1 -1 -1 -1 -1 -1 -2 -2 -1 -2 -2 -2 -2 -2 -2 -2
6 7 9 10 9 8 5 6 5 4 5 4 4 4 3 2 1 1 1 1 0 1 -0 -1 -1 -1 -1 -1 -1 -1 -1 -1 -1 -1 -1 -1 -1 -1 -2 -2 -1 -1 -1 -1 -1 -2 -1 -2 -2
6 7 9 8 7 7 6 6 5 6 6 6 5 3 2 2 2 2 3 2 2 2 0 -1 -1 -1 -1 -1 -1 -1 -1 -2 -2 -1 -1 -1 -1 -1 -1 -1 -1 -1 -1 -1 -1 -1 -1 -1 -1
7 7 8 8 6 5 5 6 5 6 7 5 5 5 3 3 3 3 2 2 2 1 0 -0 -1 -0 -1 -1 -1 -1 -2 -2 -2 -1 -1 -1 -1 -1 -1 -1 -0 -1 -1 -1 -1 -1 -1 -1 -1
7 7 6 6 6 5 6 5 6 5 5 4 3 3 3 3 3 3 2 2 1 1 0 -0 -1 -1 -1 -1 -1 -2 -1 -1 -1 -1 -1 -2 -1 -1 -1 -1 -0 -0 0 -1 -1 -1 -1 -1 -1
8 7 7 7 7 6 4 6 6 6 4 3 3 3 4 3 3 2 2 1 1 1 1 -0 -1 -1 -1 -1 -2 -2 -2 -2 -2 -2 -2 -2 -1 -1 -1 -1 -0 0 -1 -1 -1 -1 -1 -1 -1
7 7 7 6 6 5 6 6 6 5 4 4 4 4 4 3 3 2 2 2 1 1 1 -0 -0 -1 -1 -1 -1 -1 -2 -2 -2 -2 -2 -2 -2 -2 -2 -2 -1 -1 -1 -1 0 -1 -1 -1 -1
7 7 7 7 6 6 5 7 7 5 4 5 5 4 4 3 2 2 2 2 1 0 0 0 -0 -1 -1 -1 -1 -1 -1 -2 -2 -2 -2 -2 -2 -2 -1 -1 -1 -2 -2 -1 -1 -1 -0 -0 -1
7 7 8 7 7 5 6 9 7 5 5 6 5 5 4 3 3 2 2 1 1 0 1 -0 -0 -0 -1 -1 -1 -1 -1 -1 -1 -2 -2 -2 -1 -2 -1 -1 -1 -1 -2 -1 -1 -0 -0 -0 -0
7 9 9 9 7 6 7 8 6 5 6 6 6 5 5 4 3 2 1 1 1 1 1 0 -0 -0 -1 -1 -1 -1 -1 -1 -2 -2 -2 -2 -2 -1 -2 -2 -2 -2 -1 -1 -1 -0 -0 0 0
9 9 9 9 8 8 7 7 7 6 6 6 6 5 5 4 3 2 1 1 1 0 0 -0 -0 -0 -1 -1 -1 -1 -1 -1 -2 -2 -2 -2 -2 -1 -1 -1 -1 -1 -1 -1 -1 -0 -1 -0 0
8 8 9 8 7 8 8 7 7 6 6 7 6 6 5 4 3 2 1 1 1 0 0 0 0 -0 -0 0 0 0 0 -0 -1 -1 -2 -2 -2 -2 -2 -1 -1 -1 -0 -0 -1 -0 0 1 -0
8 9 9 8 8 8 9 8 7 7 7 6 6 6 5 4 3 2 2 1 1 1 1 0 0 -0 -0 -0 -0 -0 -0 -0 -1 -1 -2 -2 -2 -2 -2 -1 -1 -1 -0 -0 -1 -0 1 0 -0
8 9 9 9 9 9 9 9 9 7 6 6 5 5 4 4 4 3 2 2 1 1 1 0 0 -0 -0 -1 -0 -0 -1 -0 0 -0 -0 -1 -2 -2 -2 -2 -1 -1 -1 -0 -0 -0 0 1 0
9 8 8 9 10 11 9 12 9 8 8 7 6 5 5 4 3 3 3 2 2 1 0 0 -0 -0 -0 0 -0 0 1 2 1 1 0 -0 -1 -1 -1 -1 -2 -1 -1 -0 -0 -0 -0 0 2
8 8 9 10 9 10 10 11 10 8 9 8 6 5 5 4 3 3 3 2 1 2 2 0 -0 -0 1 1 1 1 0 0 0 0 -0 -1 -1 -0 0 -1 -1 -1 -1 -1 -1 -0 -0 -0 1
8 8 10 9 10 12 11 11 10 9 9 8 6 5 5 4 3 4 3 3 2 2 2 2 1 0 -0 -0 -1 -0 0 1 2 2 2 2 2 1 0 -0 -1 -1 -1 -0 -0 -1 -1 -0 -0
7 8 11 12 12 12 10 11 10 8 6 6 6 5 4 4 5 5 4 4 3 3 2 2 1 1 -0 -0 -0 1 1 2 2 2 3 3 3 2 1 -0 -0 -0 -1 -1 -1 -0 -0 -0 0
9 9 11 15 14 13 10 12 9 6 6 6 5 4 5 5 5 5 4 4 4 3 2 2 1 1 0 1 2 1 2 3 3 3 3 3 3 2 1 1 1 0 0 -0 -1 -0 -0 -0 -0
9 9 9 12 12 13 10 10 7 6 6 6 5 5 6 6 6 5 5 4 3 2 2 2 1 1 1 2 2 2 2 3 3 3 2 3 2 2 2 1 2 1 1 1 -0 -0 0 0 0
8 8 11 10 15 15 12 12 10 9 7 6 6 6 6 6 6 5 5 4 3 2 2 2 1 2 2 2 3 3 3 3 3 3 4 3 3 3 3 3 2 2 2 2 1 1 -0 0 1
9 9 10 10 11 14 14 11 7 8 7 7 6 6 6 6 6 5 4 4 3 2 2 2 2 3 3 3 3 4 3 3 3 4 5 5 4 4 4 2 3 3 3 1 2 2 1 1 2
8 9 9 11 13 11 12 12 7 7 7 6 6 6 6 6 5 5 4 3 2 2 2 2 3 3 3 3 4 4 3 4 4 5 5 5 5 5 5 3 3 3 2 2 2 3 3 3 2